Weather History for CXDK - January, 2013

Change the Weather History Date:

Thursday, January 31, 2013

  Actual Average Record
Temperature  
Mean Temperature -2 °F -  
Max Temperature 4 °F - - ()
Min Temperature -8 °F - - ()
Degree Days  
Heating Degree Days 67    
Moisture  
Dew Point -12 °F    
Average Humidity 63    
Maximum Humidity 74    
Minimum Humidity 46    
Precipitation  
Precipitation 0.00 in - - ()
Sea Level Pressure  
Sea Level Pressure 30.06 in    
Wind  
Wind Speed 32 mph ()    
Max Wind Speed 40 mph    
Max Gust Speed -    
T = Trace of Precipitation, MM = Missing Value Source: Averaged Metar Reports

Daily Weather History Graph

Daily Weather History Graph

Search for Another Location

Airport or City:

Trip Planner

Search our weather history database for the weather conditions in past years. The results will help you decide how hot, cold, wet, or windy it might be!

Date:

Astronomy

Jan. 31, 2013 Rise Set
Actual Time 9:40 AM MST 5:23 PM MST
Civil Twilight 8:50 AM MST 6:13 PM MST
Nautical Twilight 7:57 AM MST 7:06 PM MST
Astronomical Twilight 7:06 AM MST 7:57 PM MST
Moon No Moon Rise 10:06 AM MST (1/31)
Length of Visible Light 9h 23m
Length of Day
7h 43m
Waning Gibbous, 79% of the Moon is Illuminated
Jan 31
Waning Gibbous
Feb 3
Last Quarter
Feb 10
New
Feb 17
First Quarter
Feb 25
Full

Hourly Weather History & Observations

Time (MST) Temp. Windchill Dew Point Humidity Pressure Visibility Wind Dir Wind Speed Gust Speed Precip Events Conditions
12:00 AM -7.6 °F -38.4 °F -18.8 °F 58% 30.17 in - North 36.8 mph - N/A   Unknown
1:00 AM -7.6 °F -39.4 °F -18.9 °F 58% 30.16 in - North 40.3 mph - N/A   Unknown
2:00 AM -8.3 °F -40.1 °F -19.1 °F 59% 30.15 in - North 39.1 mph - N/A   Unknown
3:00 AM -7.6 °F -38.4 °F -18.4 °F 59% 30.15 in - North 36.8 mph - N/A   Unknown
4:00 AM -7.4 °F -38.5 °F -17.9 °F 60% 30.14 in - North 38.0 mph - N/A   Unknown
5:00 AM -7 °F - -17 °F 46% 30.13 in - Calm Calm - -  
5:00 AM -6.7 °F -37.2 °F -16.8 °F 62% 30.13 in - North 36.8 mph - N/A   Unknown
6:00 AM -7.2 °F -36.8 °F -16.6 °F 64% 30.13 in - North 33.4 mph - N/A   Unknown
7:00 AM -7.4 °F -38.2 °F -17.1 °F 63% 30.12 in - North 36.8 mph - N/A   Unknown
8:00 AM -7.1 °F -38.3 °F -16.4 °F 64% 30.12 in - North 39.1 mph - N/A   Unknown
9:00 AM -6.7 °F -37.2 °F -16.6 °F 62% 30.10 in - North 36.8 mph - N/A   Unknown
10:00 AM -6.5 °F -36.9 °F -15.9 °F 64% 30.09 in - North 36.8 mph - N/A   Unknown
11:00 AM -4.9 °F -34.3 °F -15.0 °F 62% 30.10 in - North 35.7 mph - N/A   Unknown
12:00 PM -1.5 °F -29.6 °F -13.7 °F 56% 30.08 in - North 35.7 mph - N/A   Unknown
1:00 PM -0.9 °F -29.2 °F -12.3 °F 59% 30.06 in - North 36.8 mph - N/A   Unknown
2:00 PM 1.0 °F -26.1 °F -10.3 °F 59% 30.05 in - North 35.7 mph - N/A   Unknown
3:00 PM -0.8 °F -28.0 °F -10.5 °F 63% 30.03 in - North 33.4 mph - N/A   Unknown
4:00 PM 0.5 °F -26.9 °F -9.0 °F 64% 30.02 in - North 35.7 mph - N/A   Unknown
5:00 PM 0 °F - -8 °F 55% 30.01 in - Calm Calm - -  
5:00 PM 0.3 °F -25.4 °F -8.1 °F 68% 30.01 in - North 29.9 mph - N/A   Unknown
6:00 PM -0.2 °F -26.5 °F -8.5 °F 68% 30.01 in - North 31.1 mph - N/A   Unknown
7:00 PM 0.7 °F -23.7 °F -7.1 °F 70% 29.99 in - North 26.5 mph - N/A   Unknown
8:00 PM 0.7 °F -24.9 °F -6.7 °F 71% 29.97 in - North 29.9 mph - N/A   Unknown
9:00 PM 2.5 °F -22.5 °F -4.9 °F 71% 29.96 in - North 29.9 mph - N/A   Unknown
10:00 PM 4.1 °F -22.2 °F -3.3 °F 71% 29.95 in - North 36.8 mph - N/A   Unknown
11:00 PM 2 °F - -5 °F 61% 29.96 in - Calm Calm - -  
11:00 PM 1.6 °F -18.6 °F -4.9 °F 74% 29.96 in - North 17.3 mph - N/A   Unknown